contact:dominique.lefevre@mio.osupytheas.fr, maurice.libes@osupytheas.fr, didier.mallarino@osupytheas.fr
Project:EMSO http://www.emso-fr.org/EMSO-France
Depth: 2436.0 m
Title:EMSO Ligure Ouest : Data MII capteur AQUADOPP
Date,Latitude,Longitude,X_East,Y_North,Z_Up,Amplitude_X,Amplitude_Y,Amplitude_Z,Batterie,SoundSpeed,Heading,Pitch,Roll,Pressure,TIS,Speed,Direction
, degrees North, degrees East, m.s-1, m.s-1,m.s-1, 1, 1, 1, Volt, m.s-1, degree, degree, degree, dbar, degree_C, m.s-1, degree
2022-10-27T00:04:03,42.805,6.029,-0.033,-0.04,-0.028,103.0,102.0,101.0,13.4,1505.2,322.4,-0.8,1.8,2471.074,13.28,0.051,219.5
2022-10-27T00:07:03,42.805,6.029,-0.025,-0.038,-0.032,102.0,102.0,102.0,13.4,1505.2,326.6,-0.8,1.8,2471.107,13.28,0.045,213.3
2022-10-27T00:10:03,42.805,6.029,-0.038,-0.002,-0.016,102.0,101.0,102.0,13.3,1505.2,325.3,-0.7,1.8,2471.074,13.28,0.038,267.0
2022-10-27T00:13:03,42.805,6.029,-0.047,-0.032,-0.03,102.0,102.0,102.0,13.3,1505.2,328.1,-0.8,1.8,2471.053,13.28,0.056,235.8
2022-10-27T00:16:03,42.805,6.029,-0.029,-0.036,0.0,103.0,101.0,101.0,13.4,1505.2,326.9,-0.7,1.8,2471.072,13.28,0.046,218.9
2022-10-27T00:19:03,42.805,6.029,-0.051,-0.018,-0.034,103.0,102.0,101.0,13.4,1505.2,330.2,-0.7,1.8,2471.044,13.29,0.054,250.6
2022-10-27T00:22:03,42.805,6.029,-0.032,-0.026,-0.011,104.0,103.0,100.0,13.4,1505.2,316.7,-0.8,1.8,2471.102,13.29,0.041,230.9
2022-10-27T00:25:03,42.805,6.029,-0.019,-0.036,-0.022,103.0,103.0,100.0,13.4,1505.2,319.2,-0.8,1.8,2471.098,13.29,0.04,207.8
2022-10-27T00:28:03,42.805,6.029,-0.048,-0.007,-0.024,103.0,102.0,101.0,13.3,1505.2,334.7,-0.7,1.8,2471.052,13.29,0.048,261.7
2022-10-27T00:31:03,42.805,6.029,-0.034,-0.01,0.007,103.0,102.0,102.0,13.3,1505.2,327.3,-0.7,1.8,2471.024,13.29,0.035,253.6
2022-10-27T00:34:03,42.805,6.029,-0.05,-0.005,0.0,103.0,103.0,102.0,13.4,1505.2,329.0,-0.7,1.8,2471.044,13.29,0.05,264.3
2022-10-27T00:37:03,42.805,6.029,-0.041,-0.008,-0.021,103.0,102.0,103.0,13.4,1505.2,334.4,-0.8,1.8,2471.039,13.29,0.041,259.0
2022-10-27T00:40:03,42.805,6.029,-0.063,-0.035,-0.013,104.0,101.0,101.0,13.4,1505.2,322.8,-0.7,1.8,2471.003,13.29,0.072,240.9
2022-10-27T00:43:03,42.805,6.029,-0.045,-0.015,-0.003,102.0,103.0,102.0,13.4,1505.2,325.4,-0.7,1.8,2471.028,13.29,0.047,251.6
2022-10-27T00:46:03,42.805,6.029,-0.055,-0.031,-0.039,102.0,102.0,101.0,13.4,1505.2,327.4,-0.7,1.8,2471.048,13.29,0.063,240.6
2022-10-27T00:49:03,42.805,6.029,-0.064,-0.019,-0.009,103.0,101.0,101.0,13.3,1505.2,320.2,-0.8,1.8,2471.063,13.29,0.066,253.5
2022-10-27T00:52:03,42.805,6.029,-0.052,-0.023,-0.027,103.0,102.0,102.0,13.3,1505.2,323.6,-0.8,1.8,2471.059,13.29,0.056,246.1
2022-10-27T00:55:03,42.805,6.029,-0.057,-0.017,-0.023,102.0,104.0,101.0,13.3,1505.2,329.5,-0.8,1.8,2471.047,13.29,0.059,253.4
2022-10-27T00:58:03,42.805,6.029,-0.032,-0.011,-0.032,103.0,102.0,101.0,13.4,1505.2,322.0,-0.8,1.8,2471.014,13.29,0.033,251.0
2022-10-27T01:04:03,42.805,6.029,-0.057,-0.025,-0.027,105.0,105.0,103.0,13.4,1505.2,328.5,-0.7,1.8,2471.109,13.28,0.062,246.3
2022-10-27T01:07:03,42.805,6.029,-0.033,-0.026,-0.006,102.0,101.0,102.0,13.3,1505.2,319.3,-0.8,1.8,2471.066,13.28,0.042,231.8
2022-10-27T01:10:03,42.805,6.029,-0.03,-0.038,-0.04,103.0,103.0,102.0,13.4,1505.2,315.8,-0.7,1.9,2471.035,13.28,0.048,218.3
2022-10-27T01:13:03,42.805,6.029,-0.053,-0.032,-0.034,103.0,103.0,101.0,13.4,1505.2,319.6,-0.8,1.8,2471.046,13.28,0.061,238.9
2022-10-27T01:16:03,42.805,6.029,-0.046,-0.037,-0.019,102.0,102.0,101.0,13.4,1505.2,319.2,-0.7,1.8,2471.055,13.29,0.059,231.2
2022-10-27T01:19:03,42.805,6.029,-0.05,-0.024,-0.012,104.0,102.0,101.0,13.3,1505.2,317.1,-0.8,1.8,2471.063,13.29,0.055,244.4
2022-10-27T01:22:03,42.805,6.029,-0.065,-0.021,-0.015,103.0,104.0,101.0,13.4,1505.2,328.6,-0.7,1.8,2471.052,13.29,0.068,252.1
2022-10-27T01:25:03,42.805,6.029,-0.063,-0.007,-0.035,103.0,102.0,101.0,13.3,1505.2,329.8,-0.8,1.8,2471.025,13.29,0.063,263.7
2022-10-27T01:28:03,42.805,6.029,-0.055,-0.026,-0.021,102.0,102.0,102.0,13.4,1505.2,329.7,-0.7,1.8,2471.007,13.29,0.06,244.7
2022-10-27T01:31:03,42.805,6.029,-0.04,-0.028,0.012,102.0,103.0,102.0,13.4,1505.2,318.3,-0.8,1.8,2471.013,13.29,0.048,235.0
2022-10-27T01:34:03,42.805,6.029,-0.045,-0.006,0.019,104.0,102.0,102.0,13.3,1505.2,320.4,-0.8,1.8,2471.006,13.29,0.045,262.4
2022-10-27T01:37:03,42.805,6.029,-0.066,-0.025,-0.043,103.0,102.0,101.0,13.4,1505.2,330.0,-0.8,1.8,2470.989,13.29,0.07,249.3
2022-10-27T01:40:03,42.805,6.029,-0.045,-0.019,-0.024,104.0,101.0,101.0,13.4,1505.2,318.7,-0.7,1.8,2471.048,13.29,0.048,247.1
2022-10-27T01:43:03,42.805,6.029,-0.077,-0.003,0.022,104.0,104.0,102.0,13.3,1505.2,320.1,-0.7,1.8,2471.014,13.29,0.077,267.8
2022-10-27T01:46:03,42.805,6.029,-0.066,0.013,-0.007,103.0,103.0,101.0,13.4,1505.2,327.1,-0.8,1.8,2470.998,13.29,0.067,281.1
2022-10-27T01:49:03,42.805,6.029,-0.04,-0.001,-0.018,101.0,102.0,102.0,13.4,1505.2,332.8,-0.7,1.8,2470.996,13.29,0.04,268.6
2022-10-27T01:52:03,42.805,6.029,-0.043,-0.023,-0.004,104.0,102.0,102.0,13.4,1505.2,330.6,-0.8,1.8,2471.01,13.29,0.048,241.9
2022-10-27T01:55:03,42.805,6.029,-0.057,-0.007,-0.019,103.0,102.0,101.0,13.4,1505.2,330.0,-0.7,1.8,2471.02,13.29,0.057,263.0
2022-10-27T01:58:03,42.805,6.029,-0.05,-0.033,-0.003,103.0,101.0,102.0,13.4,1505.2,333.4,-0.8,1.8,2470.984,13.29,0.059,236.6
2022-10-27T02:04:03,42.805,6.029,-0.039,0.013,0.018,101.0,102.0,102.0,13.4,1505.2,335.0,-0.8,1.8,2471.064,13.28,0.041,288.4
2022-10-27T02:07:03,42.805,6.029,-0.055,-0.008,-0.013,103.0,102.0,101.0,13.4,1505.2,320.6,-0.7,1.8,2471.055,13.28,0.055,261.7
2022-10-27T02:10:03,42.805,6.029,-0.055,-0.018,-0.008,103.0,102.0,101.0,13.3,1505.2,318.8,-0.8,1.8,2471.066,13.28,0.057,251.9
2022-10-27T02:13:03,42.805,6.029,-0.055,-0.013,-0.013,103.0,102.0,102.0,13.4,1505.2,327.9,-0.7,1.8,2471.028,13.29,0.056,256.7
2022-10-27T02:16:03,42.805,6.029,-0.043,-0.009,-0.055,102.0,103.0,101.0,13.4,1505.2,324.1,-0.8,1.8,2471.046,13.29,0.043,258.2
2022-10-27T02:19:03,42.805,6.029,-0.049,-0.026,-0.001,103.0,102.0,102.0,13.4,1505.2,323.6,-0.8,1.8,2471.017,13.29,0.055,242.1
2022-10-27T02:22:03,42.805,6.029,-0.062,-0.011,0.002,103.0,102.0,100.0,13.3,1505.2,328.9,-0.7,1.8,2471.026,13.29,0.062,259.9
2022-10-27T02:25:03,42.805,6.029,-0.062,-0.019,0.007,102.0,103.0,102.0,13.4,1505.2,318.4,-0.7,1.8,2471.014,13.29,0.064,253.0
2022-10-27T02:28:03,42.805,6.029,-0.046,0.0,0.007,103.0,102.0,101.0,13.4,1505.2,329.8,-0.7,1.8,2470.983,13.29,0.046,270.0
2022-10-27T02:31:03,42.805,6.029,-0.034,0.004,-0.03,103.0,103.0,100.0,13.4,1505.2,329.5,-0.7,1.8,2471.004,13.29,0.034,276.7
2022-10-27T02:34:03,42.805,6.029,-0.057,-0.016,-0.011,103.0,102.0,101.0,13.4,1505.2,322.5,-0.8,1.8,2471.001,13.29,0.059,254.3
2022-10-27T02:37:03,42.805,6.029,-0.07,-0.003,-0.001,102.0,103.0,102.0,13.3,1505.2,330.1,-0.8,1.8,2471.008,13.29,0.07,267.6
2022-10-27T02:40:03,42.805,6.029,-0.049,-0.006,0.001,103.0,103.0,102.0,13.4,1505.2,318.7,-0.8,1.8,2470.978,13.29,0.049,263.0
2022-10-27T02:43:03,42.805,6.029,-0.069,-0.017,0.0,104.0,103.0,101.0,13.3,1505.2,331.7,-0.8,1.8,2470.993,13.29,0.071,256.2
2022-10-27T02:46:03,42.805,6.029,-0.058,0.009,0.0,103.0,103.0,103.0,13.3,1505.2,327.3,-0.7,1.8,2471.006,13.29,0.058,278.8
2022-10-27T02:49:03,42.805,6.029,-0.066,-0.012,-0.038,103.0,103.0,101.0,13.4,1505.2,317.2,-0.7,1.8,2470.991,13.29,0.067,259.7
2022-10-27T02:52:03,42.805,6.029,-0.06,0.009,-0.008,103.0,103.0,102.0,13.3,1505.2,329.6,-0.8,1.8,2471.016,13.29,0.06,278.5
2022-10-27T02:55:03,42.805,6.029,-0.039,-0.026,-0.03,102.0,102.0,103.0,13.3,1505.2,322.0,-0.8,1.8,2470.961,13.29,0.046,236.3
2022-10-27T02:58:03,42.805,6.029,-0.055,0.0,-0.016,102.0,103.0,101.0,13.4,1505.2,330.1,-0.8,1.8,2471.001,13.29,0.055,270.0
2022-10-27T03:04:03,42.805,6.029,-0.065,-0.003,-0.008,103.0,102.0,102.0,13.4,1505.2,324.7,-0.7,1.8,2471.054,13.28,0.065,267.4
2022-10-27T03:07:03,42.805,6.029,-0.047,-0.019,0.004,103.0,102.0,102.0,13.3,1505.2,323.1,-0.8,1.8,2471.003,13.28,0.05,248.0
2022-10-27T03:10:03,42.805,6.029,-0.051,-0.014,-0.011,103.0,102.0,102.0,13.4,1505.2,326.5,-0.8,1.8,2471.033,13.28,0.052,254.7
2022-10-27T03:13:03,42.805,6.029,-0.073,0.005,-0.023,104.0,103.0,101.0,13.4,1505.2,325.3,-0.8,1.8,2471.065,13.28,0.073,273.9
2022-10-27T03:16:03,42.805,6.029,-0.048,-0.002,-0.014,103.0,103.0,103.0,13.4,1505.2,322.1,-0.8,1.8,2471.07,13.29,0.048,267.6
2022-10-27T03:19:03,42.805,6.029,-0.07,-0.027,-0.023,104.0,101.0,101.0,13.3,1505.2,324.7,-0.8,1.8,2470.991,13.29,0.075,248.9
2022-10-27T03:22:03,42.805,6.029,-0.044,-0.01,-0.027,103.0,103.0,102.0,13.3,1505.2,334.3,-0.8,1.8,2471.051,13.29,0.045,257.2
2022-10-27T03:25:03,42.805,6.029,-0.035,-0.003,-0.013,103.0,103.0,102.0,13.4,1505.2,332.8,-0.8,1.8,2471.035,13.29,0.035,265.1
2022-10-27T03:28:03,42.805,6.029,-0.048,0.011,-0.009,103.0,103.0,102.0,13.4,1505.2,331.3,-0.7,1.8,2470.983,13.29,0.049,282.9
2022-10-27T03:31:03,42.805,6.029,-0.065,0.003,-0.044,102.0,104.0,102.0,13.4,1505.2,332.4,-0.8,1.8,2471.016,13.29,0.065,272.6
2022-10-27T03:34:03,42.805,6.029,-0.066,-0.026,-0.031,103.0,103.0,105.0,13.4,1505.2,324.0,-0.8,1.8,2471.037,13.29,0.07,248.5
2022-10-27T03:37:03,42.805,6.029,-0.045,-0.008,-0.023,105.0,101.0,101.0,13.3,1505.2,324.5,-0.8,1.8,2471.016,13.29,0.045,259.9
2022-10-27T03:40:03,42.805,6.029,-0.056,0.012,-0.015,103.0,103.0,101.0,13.4,1505.2,324.7,-0.7,1.8,2471.037,13.29,0.057,282.1
2022-10-27T03:43:03,42.805,6.029,-0.053,-0.001,-0.02,103.0,103.0,101.0,13.4,1505.2,322.7,-0.7,1.8,2471.002,13.29,0.053,268.9
2022-10-27T03:46:03,42.805,6.029,-0.043,-0.002,0.015,104.0,103.0,101.0,13.4,1505.2,326.8,-0.8,1.8,2471.074,13.29,0.043,267.3
2022-10-27T03:49:03,42.805,6.029,-0.048,0.011,-0.026,103.0,102.0,102.0,13.3,1505.2,331.4,-0.8,1.8,2471.012,13.29,0.049,282.9
2022-10-27T03:52:03,42.805,6.029,-0.047,-0.005,-0.042,101.0,104.0,102.0,13.4,1505.2,326.1,-0.8,1.8,2471.068,13.29,0.047,263.9
2022-10-27T03:55:03,42.805,6.029,-0.063,0.0,0.002,103.0,103.0,102.0,13.4,1505.2,333.4,-0.7,1.8,2471.026,13.29,0.062,270.0
2022-10-27T03:58:03,42.805,6.029,-0.067,0.004,-0.005,103.0,102.0,101.0,13.4,1505.2,320.6,-0.8,1.8,2471.055,13.29,0.067,273.4
2022-10-27T04:04:03,42.805,6.029,-0.061,0.027,-0.009,103.0,103.0,101.0,13.4,1505.2,326.1,-0.8,1.8,2471.059,13.28,0.066,293.9
2022-10-27T04:07:03,42.805,6.029,-0.054,0.006,-0.009,103.0,103.0,102.0,13.4,1505.2,331.7,-0.8,1.8,2471.052,13.28,0.054,276.3
2022-10-27T04:10:03,42.805,6.029,-0.047,0.024,-0.009,103.0,103.0,101.0,13.4,1505.2,334.3,-0.8,1.8,2471.077,13.29,0.052,297.0
2022-10-27T04:13:03,42.805,6.029,-0.067,0.014,-0.015,103.0,102.0,101.0,13.4,1505.2,331.3,-0.7,1.8,2471.062,13.29,0.068,281.8
2022-10-27T04:16:03,42.805,6.029,-0.063,0.001,-0.044,102.0,103.0,101.0,13.4,1505.2,331.3,-0.8,1.8,2471.082,13.29,0.063,270.9
2022-10-27T04:19:03,42.805,6.029,-0.032,0.003,-0.004,102.0,102.0,101.0,13.3,1505.2,330.2,-0.7,1.8,2471.066,13.29,0.032,275.4
2022-10-27T04:22:03,42.805,6.029,-0.064,-0.007,-0.029,103.0,103.0,101.0,13.4,1505.2,331.7,-0.7,1.8,2471.076,13.29,0.064,263.8
2022-10-27T04:25:03,42.805,6.029,-0.029,-0.009,0.0,102.0,103.0,101.0,13.3,1505.2,319.2,-0.8,1.8,2471.079,13.29,0.03,252.8
2022-10-27T04:28:03,42.805,6.029,-0.032,0.018,0.034,102.0,102.0,101.0,13.3,1505.2,320.5,-0.7,1.8,2471.067,13.29,0.036,299.4
2022-10-27T04:31:03,42.805,6.029,-0.071,0.002,0.007,104.0,102.0,101.0,13.4,1505.2,318.8,-0.8,1.8,2471.051,13.29,0.071,271.6
2022-10-27T04:34:03,42.805,6.029,-0.05,0.004,-0.023,104.0,103.0,101.0,13.3,1505.2,325.3,-0.8,1.8,2471.06,13.29,0.05,274.6
2022-10-27T04:37:03,42.805,6.029,-0.037,0.0,0.009,101.0,103.0,102.0,13.4,1505.2,326.5,-0.8,1.8,2471.053,13.29,0.037,270.0
2022-10-27T04:40:03,42.805,6.029,-0.061,0.024,0.005,103.0,103.0,101.0,13.4,1505.2,328.5,-0.7,1.8,2471.095,13.29,0.065,291.5
2022-10-27T04:43:03,42.805,6.029,-0.053,0.011,0.002,103.0,102.0,101.0,13.3,1505.2,320.6,-0.8,1.8,2471.074,13.29,0.054,281.7
2022-10-27T04:46:03,42.805,6.029,-0.028,-0.008,-0.009,103.0,103.0,101.0,13.4,1505.2,327.6,-0.7,1.8,2471.075,13.29,0.029,254.1
2022-10-27T04:49:03,42.805,6.029,-0.068,-0.013,-0.001,102.0,102.0,102.0,13.4,1505.2,318.2,-0.7,1.8,2471.066,13.29,0.069,259.2
2022-10-27T04:52:03,42.805,6.029,-0.04,-0.013,-0.018,103.0,103.0,101.0,13.3,1505.2,323.8,-0.8,1.8,2471.108,13.29,0.042,252.0
2022-10-27T04:55:03,42.805,6.029,-0.053,0.001,-0.036,103.0,103.0,103.0,13.3,1505.2,322.9,-0.8,1.8,2471.085,13.29,0.053,271.1
2022-10-27T04:58:03,42.805,6.029,-0.055,0.002,0.001,103.0,104.0,101.0,13.4,1505.2,318.8,-0.8,1.8,2471.113,13.29,0.055,272.1
2022-10-27T05:04:03,42.805,6.029,-0.036,0.012,0.005,102.0,103.0,102.0,13.3,1505.2,320.5,-0.8,1.8,2471.164,13.28,0.037,288.4
2022-10-27T05:07:03,42.805,6.029,-0.059,0.014,-0.022,102.0,102.0,101.0,13.4,1505.2,334.6,-0.8,1.8,2471.116,13.28,0.06,283.3
2022-10-27T05:10:03,42.805,6.029,-0.066,0.016,-0.059,103.0,103.0,101.0,13.3,1505.2,330.2,-0.8,1.8,2471.177,13.28,0.067,283.6
2022-10-27T05:13:03,42.805,6.029,-0.05,0.018,0.009,102.0,102.0,101.0,13.4,1505.2,327.3,-0.8,1.8,2471.183,13.29,0.053,289.8
2022-10-27T05:16:03,42.805,6.029,-0.061,0.032,0.005,102.0,102.0,102.0,13.3,1505.2,330.4,-0.7,1.8,2471.136,13.29,0.068,297.7
2022-10-27T05:19:03,42.805,6.029,-0.052,0.0,-0.01,102.0,103.0,102.0,13.4,1505.2,323.5,-0.7,1.8,2471.159,13.29,0.052,270.0
2022-10-27T05:22:03,42.805,6.029,-0.049,0.005,0.001,102.0,101.0,103.0,13.4,1505.2,323.6,-0.8,1.8,2471.164,13.29,0.049,275.8
2022-10-27T05:25:03,42.805,6.029,-0.041,0.021,-0.016,103.0,103.0,102.0,13.4,1505.2,329.9,-0.8,1.8,2471.128,13.29,0.046,297.1
2022-10-27T05:28:03,42.805,6.029,-0.066,0.007,0.001,103.0,101.0,101.0,13.3,1505.2,335.0,-0.7,1.8,2471.141,13.29,0.066,276.1
2022-10-27T05:31:03,42.805,6.029,-0.063,0.017,0.007,104.0,102.0,101.0,13.4,1505.2,328.2,-0.7,1.8,2471.168,13.29,0.065,285.1
2022-10-27T05:34:03,42.805,6.029,-0.086,0.019,-0.022,102.0,102.0,102.0,13.3,1505.2,321.6,-0.7,1.8,2471.154,13.29,0.088,282.5
2022-10-27T05:37:03,42.805,6.029,-0.067,0.016,-0.012,102.0,102.0,101.0,13.4,1505.2,325.3,-0.8,1.8,2471.124,13.29,0.068,283.4
2022-10-27T05:40:03,42.805,6.029,-0.058,-0.011,-0.026,103.0,103.0,101.0,13.4,1505.2,322.8,-0.8,1.8,2471.154,13.29,0.059,259.3
2022-10-27T05:43:03,42.805,6.029,-0.042,0.017,0.006,103.0,103.0,101.0,13.4,1505.2,321.4,-0.7,1.8,2471.175,13.29,0.045,292.0
2022-10-27T05:46:03,42.805,6.029,-0.053,0.015,-0.033,101.0,103.0,102.0,13.4,1505.2,333.1,-0.7,1.8,2471.166,13.29,0.055,285.8
2022-10-27T05:49:03,42.805,6.029,-0.058,0.026,0.036,102.0,102.0,101.0,13.4,1505.2,333.4,-0.7,1.8,2471.185,13.29,0.063,294.1
2022-10-27T05:52:03,42.805,6.029,-0.041,0.005,0.001,104.0,103.0,101.0,13.4,1505.2,317.2,-0.7,1.8,2471.134,13.29,0.041,277.0
2022-10-27T05:55:03,42.805,6.029,-0.02,0.012,-0.011,103.0,101.0,101.0,13.3,1505.2,328.1,-0.7,1.8,2471.149,13.29,0.023,301.0
2022-10-27T05:58:03,42.805,6.029,-0.034,0.005,-0.018,103.0,102.0,102.0,13.4,1505.2,325.7,-0.8,1.8,2471.182,13.29,0.034,278.4
2022-10-27T06:04:03,42.805,6.029,-0.039,0.005,0.008,103.0,102.0,102.0,13.4,1505.2,323.6,-0.8,1.8,2471.227,13.28,0.039,277.3
2022-10-27T06:07:03,42.805,6.029,-0.063,0.006,-0.02,103.0,101.0,102.0,13.4,1505.2,317.1,-0.7,1.8,2471.201,13.28,0.063,275.4
2022-10-27T06:10:03,42.805,6.029,-0.052,0.027,0.005,103.0,103.0,101.0,13.4,1505.2,328.0,-0.8,1.8,2471.206,13.29,0.058,297.4
2022-10-27T06:13:03,42.805,6.029,-0.038,0.014,-0.001,104.0,102.0,101.0,13.3,1505.2,325.9,-0.7,1.8,2471.231,13.29,0.04,290.2
2022-10-27T06:16:03,42.805,6.029,-0.059,0.015,-0.032,102.0,102.0,101.0,13.3,1505.2,329.5,-0.8,1.8,2471.24,13.29,0.06,284.3
2022-10-27T06:19:03,42.805,6.029,-0.066,0.002,-0.005,103.0,103.0,101.0,13.4,1505.2,333.7,-0.8,1.8,2471.212,13.29,0.066,271.7
2022-10-27T06:22:03,42.805,6.029,-0.031,0.011,0.014,105.0,103.0,100.0,13.4,1505.2,334.4,-0.8,1.8,2471.209,13.29,0.032,289.5
2022-10-27T06:25:03,42.805,6.029,-0.057,0.04,-0.003,102.0,102.0,102.0,13.3,1505.2,329.8,-0.7,1.8,2471.211,13.29,0.069,305.1
2022-10-27T06:28:03,42.805,6.029,-0.069,0.005,-0.013,103.0,103.0,102.0,13.3,1505.2,319.2,-0.7,1.8,2471.252,13.29,0.069,274.1
2022-10-27T06:31:03,42.805,6.029,-0.06,0.037,0.005,103.0,102.0,102.0,13.3,1505.2,325.9,-0.7,1.8,2471.191,13.29,0.07,301.7
2022-10-27T06:34:03,42.805,6.029,-0.051,0.004,0.008,103.0,102.0,101.0,13.4,1505.2,324.7,-0.7,1.8,2471.21,13.29,0.051,274.5
2022-10-27T06:37:03,42.805,6.029,-0.037,-0.001,-0.003,103.0,104.0,100.0,13.4,1505.2,321.8,-0.8,1.9,2471.265,13.29,0.037,268.5
2022-10-27T06:40:03,42.805,6.029,-0.051,0.005,-0.016,103.0,102.0,101.0,13.3,1505.2,322.0,-0.8,1.8,2471.202,13.29,0.051,275.6
2022-10-27T06:43:03,42.805,6.029,-0.039,0.009,0.0,103.0,102.0,102.0,13.4,1505.2,318.0,-0.8,1.9,2471.221,13.29,0.04,283.0
2022-10-27T06:46:03,42.805,6.029,-0.054,0.015,-0.029,103.0,103.0,101.0,13.3,1505.2,324.9,-0.8,1.8,2471.232,13.29,0.056,285.5
2022-10-27T06:49:03,42.805,6.029,-0.046,0.001,-0.01,103.0,103.0,101.0,13.3,1505.2,318.8,-0.8,1.8,2471.289,13.29,0.046,271.2
2022-10-27T06:52:03,42.805,6.029,-0.048,-0.007,0.015,103.0,103.0,102.0,13.4,1505.2,317.6,-0.8,1.8,2471.234,13.29,0.048,261.7
2022-10-27T06:55:03,42.805,6.029,-0.036,-0.017,-0.042,103.0,103.0,102.0,13.3,1505.2,318.7,-0.8,1.8,2471.221,13.29,0.039,244.7
2022-10-27T06:58:03,42.805,6.029,-0.045,0.015,-0.012,102.0,103.0,102.0,13.4,1505.2,331.0,-0.8,1.8,2471.24,13.29,0.047,288.4
2022-10-27T07:04:03,42.805,6.029,-0.049,0.03,0.029,103.0,102.0,102.0,13.4,1505.2,331.4,-0.7,1.8,2471.316,13.28,0.057,301.5
2022-10-27T07:07:03,42.805,6.029,-0.044,0.009,0.004,102.0,103.0,101.0,13.4,1505.2,324.2,-0.8,1.8,2471.322,13.28,0.044,281.6
2022-10-27T07:10:03,42.805,6.029,-0.048,0.027,0.011,104.0,103.0,101.0,13.4,1505.2,328.6,-0.8,1.8,2471.263,13.29,0.055,299.4
2022-10-27T07:13:03,42.805,6.029,-0.058,0.004,-0.005,104.0,103.0,101.0,13.4,1505.2,318.5,-0.8,1.8,2471.262,13.29,0.058,273.9
2022-10-27T07:16:03,42.805,6.029,-0.031,0.02,-0.008,104.0,103.0,102.0,13.4,1505.2,334.0,-0.8,1.8,2471.295,13.29,0.036,302.8
2022-10-27T07:19:03,42.805,6.029,-0.059,0.012,-0.013,103.0,103.0,102.0,13.4,1505.2,329.3,-0.8,1.8,2471.284,13.29,0.06,281.5
2022-10-27T07:22:03,42.805,6.029,-0.038,0.012,-0.005,102.0,103.0,102.0,13.4,1505.2,329.5,-0.8,1.8,2471.295,13.29,0.039,287.5
2022-10-27T07:25:03,42.805,6.029,-0.048,0.0,-0.009,104.0,103.0,101.0,13.4,1505.2,333.7,-0.8,1.8,2471.288,13.29,0.048,270.0
2022-10-27T07:28:03,42.805,6.029,-0.035,-0.006,0.014,103.0,102.0,101.0,13.4,1505.2,326.7,-0.8,1.8,2471.261,13.29,0.035,260.3
2022-10-27T07:31:03,42.805,6.029,-0.055,0.028,-0.044,103.0,103.0,101.0,13.4,1505.2,326.5,-0.8,1.8,2471.265,13.29,0.061,297.0
2022-10-27T07:34:03,42.805,6.029,-0.064,0.023,-0.004,103.0,103.0,101.0,13.4,1505.2,326.3,-0.7,1.8,2471.272,13.29,0.068,289.8
2022-10-27T07:37:03,42.805,6.029,-0.052,0.015,0.004,102.0,103.0,101.0,13.4,1505.2,326.3,-0.8,1.8,2471.25,13.29,0.054,286.1
2022-10-27T07:40:03,42.805,6.029,-0.057,0.034,0.008,103.0,103.0,101.0,13.4,1505.2,329.9,-0.8,1.8,2471.25,13.29,0.066,300.8
2022-10-27T07:43:03,42.805,6.029,-0.056,0.009,0.007,102.0,102.0,102.0,13.4,1505.2,323.7,-0.8,1.8,2471.255,13.29,0.056,279.1
2022-10-27T07:46:03,42.805,6.029,-0.039,0.011,-0.002,103.0,103.0,102.0,13.4,1505.2,328.4,-0.7,1.8,2471.291,13.29,0.04,285.7
2022-10-27T07:49:03,42.805,6.029,-0.034,-0.004,0.027,103.0,103.0,101.0,13.3,1505.2,316.8,-0.7,1.8,2471.266,13.29,0.034,263.3
2022-10-27T07:52:03,42.805,6.029,-0.029,0.0,-0.007,103.0,103.0,102.0,13.4,1505.2,318.7,-0.8,1.8,2471.231,13.29,0.028,270.0
2022-10-27T07:55:03,42.805,6.029,-0.034,0.02,-0.016,103.0,103.0,102.0,13.3,1505.2,322.3,-0.8,1.8,2471.259,13.29,0.039,300.5
2022-10-27T07:58:03,42.805,6.029,-0.052,0.034,0.014,102.0,103.0,102.0,13.3,1505.2,320.9,-0.8,1.8,2471.253,13.29,0.062,303.2
2022-10-27T08:04:03,42.805,6.029,-0.031,0.029,0.016,104.0,103.0,101.0,13.4,1505.2,330.7,-0.8,1.8,2471.295,13.28,0.042,313.1
2022-10-27T08:07:03,42.805,6.029,-0.054,0.009,-0.043,104.0,103.0,101.0,13.4,1505.2,322.8,-0.8,1.8,2471.315,13.28,0.054,279.5
2022-10-27T08:10:03,42.805,6.029,-0.06,0.005,0.014,103.0,103.0,101.0,13.4,1505.2,320.4,-0.8,1.8,2471.334,13.29,0.06,274.8
2022-10-27T08:13:03,42.805,6.029,-0.04,-0.011,-0.005,101.0,103.0,103.0,13.4,1505.2,321.2,-0.8,1.8,2471.325,13.29,0.041,254.6
2022-10-27T08:16:03,42.805,6.029,-0.051,0.007,-0.008,103.0,103.0,100.0,13.4,1505.2,323.1,-0.8,1.8,2471.307,13.29,0.051,277.8
2022-10-27T08:19:03,42.805,6.029,-0.069,0.008,-0.016,102.0,103.0,101.0,13.4,1505.2,319.3,-0.7,1.8,2471.262,13.29,0.069,276.6
2022-10-27T08:22:03,42.805,6.029,-0.06,0.03,-0.003,104.0,101.0,102.0,13.4,1505.2,328.3,-0.8,1.8,2471.26,13.29,0.067,296.6
2022-10-27T08:25:03,42.805,6.029,-0.034,0.009,-0.015,102.0,103.0,101.0,13.4,1505.2,327.5,-0.8,1.8,2471.255,13.29,0.035,284.8
2022-10-27T08:28:03,42.805,6.029,-0.042,0.019,0.007,103.0,103.0,102.0,13.4,1505.2,329.3,-0.8,1.8,2471.303,13.29,0.046,294.3
2022-10-27T08:31:03,42.805,6.029,-0.045,0.008,-0.008,102.0,103.0,101.0,13.4,1505.2,323.9,-0.8,1.8,2471.282,13.29,0.045,280.1
2022-10-27T08:34:03,42.805,6.029,-0.038,0.028,0.002,103.0,103.0,101.0,13.3,1505.2,331.7,-0.7,1.8,2471.273,13.29,0.047,306.4
2022-10-27T08:37:03,42.805,6.029,-0.044,0.008,0.002,103.0,102.0,101.0,13.4,1505.2,324.7,-0.8,1.8,2471.26,13.29,0.044,280.3
2022-10-27T08:40:03,42.805,6.029,-0.041,0.002,-0.008,104.0,103.0,101.0,13.4,1505.2,322.7,-0.8,1.8,2471.25,13.29,0.041,272.8
2022-10-27T08:43:03,42.805,6.029,-0.052,-0.005,-0.005,103.0,104.0,101.0,13.4,1505.2,320.0,-0.7,1.9,2471.254,13.29,0.052,264.5
2022-10-27T08:46:03,42.805,6.029,-0.032,0.017,-0.01,104.0,103.0,102.0,13.3,1505.2,328.5,-0.8,1.8,2471.266,13.29,0.036,298.0
2022-10-27T08:49:03,42.805,6.029,-0.019,-0.024,0.005,105.0,104.0,100.0,13.3,1505.2,320.4,-0.8,1.8,2471.249,13.29,0.03,218.4
2022-10-27T08:52:03,42.805,6.029,-0.066,0.01,0.002,102.0,104.0,101.0,13.4,1505.2,322.4,-0.8,1.8,2471.294,13.29,0.066,278.6
2022-10-27T08:55:03,42.805,6.029,-0.042,0.007,0.018,103.0,103.0,102.0,13.3,1505.2,322.6,-0.8,1.8,2471.253,13.29,0.042,279.5
2022-10-27T08:58:03,42.805,6.029,-0.033,0.006,-0.006,102.0,102.0,103.0,13.3,1505.2,322.7,-0.7,1.9,2471.263,13.29,0.033,280.3
2022-10-27T09:04:03,42.805,6.029,-0.018,0.027,0.029,102.0,102.0,101.0,13.4,1505.2,333.1,-0.7,1.8,2471.295,13.28,0.032,326.3
2022-10-27T09:07:03,42.805,6.029,-0.029,0.008,-0.016,103.0,103.0,101.0,13.4,1505.2,327.0,-0.7,1.8,2471.248,13.28,0.03,285.4
2022-10-27T09:10:03,42.805,6.029,-0.04,0.019,-0.02,103.0,103.0,101.0,13.4,1505.2,328.7,-0.8,1.8,2471.321,13.29,0.044,295.4
2022-10-27T09:13:03,42.805,6.029,-0.045,0.004,-0.052,102.0,103.0,101.0,13.4,1505.2,324.7,-0.8,1.8,2471.295,13.29,0.045,275.1
2022-10-27T09:16:03,42.805,6.029,-0.037,0.02,-0.008,102.0,103.0,101.0,13.4,1505.2,329.7,-0.8,1.8,2471.27,13.29,0.042,298.4
2022-10-27T09:19:03,42.805,6.029,-0.032,0.023,0.031,102.0,103.0,101.0,13.4,1505.2,327.5,-0.7,1.8,2471.247,13.29,0.039,305.7
2022-10-27T09:22:03,42.805,6.029,-0.041,0.015,0.041,103.0,103.0,102.0,13.3,1505.2,321.8,-0.8,1.9,2471.255,13.29,0.043,290.1
2022-10-27T09:25:03,42.805,6.029,-0.056,0.019,0.001,103.0,102.0,101.0,13.4,1505.2,322.3,-0.7,1.8,2471.232,13.29,0.059,288.7
2022-10-27T09:28:03,42.805,6.029,-0.059,0.032,0.001,102.0,102.0,101.0,13.4,1505.2,326.8,-0.8,1.8,2471.268,13.29,0.067,298.5
2022-10-27T09:31:03,42.805,6.029,-0.057,0.0,-0.01,103.0,103.0,101.0,13.4,1505.2,328.1,-0.8,1.8,2471.256,13.29,0.057,270.0
2022-10-27T09:34:03,42.805,6.029,-0.051,0.0,-0.01,102.0,102.0,103.0,13.4,1505.2,321.7,-0.8,1.8,2471.231,13.29,0.051,270.0
2022-10-27T09:37:03,42.805,6.029,-0.04,0.014,-0.008,102.0,102.0,101.0,13.4,1505.2,325.7,-0.7,1.8,2471.237,13.29,0.042,289.3
2022-10-27T09:40:03,42.805,6.029,-0.033,0.016,-0.012,103.0,103.0,101.0,13.3,1505.2,328.1,-0.7,1.8,2471.222,13.29,0.036,295.9
2022-10-27T09:43:03,42.805,6.029,-0.066,0.008,-0.001,103.0,103.0,101.0,13.4,1505.2,318.4,-0.7,1.8,2471.234,13.29,0.066,276.9
2022-10-27T09:46:03,42.805,6.029,-0.054,-0.004,-0.014,102.0,103.0,101.0,13.3,1505.2,332.7,-0.8,1.8,2471.233,13.29,0.054,265.8
2022-10-27T09:49:03,42.805,6.029,-0.052,0.016,0.001,103.0,103.0,101.0,13.4,1505.2,329.5,-0.8,1.8,2471.242,13.29,0.054,287.1
2022-10-27T09:52:03,42.805,6.029,-0.039,0.011,0.023,102.0,103.0,103.0,13.4,1505.2,324.7,-0.8,1.8,2471.243,13.29,0.04,285.7